TVS5ZW LKPR-LROP

Flight info

Callsign TVS5ZW
Flight time N/A
Altitude 37000
Route VOZ DCT LIKSA DCT PEPIK DCT DEGET DCT EKNAB DCT LAMIT DCT TOSVI
Aircraft B738/M-SDE2E3FGHIRWXY/LB1

Departure

Time 2026-05-07 15:39
Airport Václav Havel Airport Prague (LKPR)

Arrival

Time N/A
Airport Bucharest Henri Coandă International Airport (LROP)
Time Latitude Longitude Altitude Speed Heading
2026-05-07 15:11 50.10484 14.26480 1173 ft 0 kts 34°
2026-05-07 15:16 50.10484 14.26479 1173 ft 0 kts 34°
2026-05-07 15:29 50.10479 14.26474 1173 ft 2 kts 36°
2026-05-07 15:29 50.10467 14.26458 1171 ft 2 kts 46°
2026-05-07 15:30 50.10457 14.26437 1168 ft 2 kts 81°
2026-05-07 15:30 50.10460 14.26414 1170 ft 1 kts 124°
2026-05-07 15:30 50.10461 14.26411 1170 ft 0 kts 124°
2026-05-07 15:33 50.10461 14.26413 1170 ft 1 kts 124°
2026-05-07 15:33 50.10448 14.26441 1168 ft 6 kts 124°
2026-05-07 15:33 50.10415 14.26516 1169 ft 11 kts 124°
2026-05-07 15:33 50.10375 14.26607 1172 ft 10 kts 133°
2026-05-07 15:34 50.10341 14.26612 1173 ft 4 kts 205°
2026-05-07 15:34 50.10300 14.26570 1170 ft 10 kts 214°
2026-05-07 15:34 50.10234 14.26537 1176 ft 11 kts 154°
2026-05-07 15:34 50.10177 14.26644 1176 ft 15 kts 127°
2026-05-07 15:35 50.10110 14.26782 1183 ft 16 kts 127°
2026-05-07 15:35 50.10043 14.26914 1191 ft 15 kts 128°
2026-05-07 15:35 50.09980 14.27045 1197 ft 16 kts 124°
2026-05-07 15:35 50.09910 14.27195 1200 ft 15 kts 127°
2026-05-07 15:36 50.09850 14.27315 1202 ft 13 kts 129°
2026-05-07 15:36 50.09776 14.27427 1204 ft 17 kts 136°
2026-05-07 15:36 50.09678 14.27582 1206 ft 21 kts 135°
2026-05-07 15:36 50.09575 14.27740 1210 ft 19 kts 135°
2026-05-07 15:37 50.09479 14.27885 1214 ft 19 kts 135°
2026-05-07 15:37 50.09400 14.28007 1214 ft 18 kts 134°
2026-05-07 15:37 50.09311 14.28144 1214 ft 18 kts 135°
2026-05-07 15:37 50.09224 14.28268 1211 ft 16 kts 151°
2026-05-07 15:38 50.09124 14.28242 1210 ft 15 kts 222°
2026-05-07 15:38 50.09068 14.28141 1208 ft 10 kts 262°
2026-05-07 15:38 50.09090 14.28067 1207 ft 3 kts 309°
2026-05-07 15:38 50.09109 14.28030 1208 ft 14 kts 309°
2026-05-07 15:39 50.09333 14.27573 1210 ft 92 kts 307°
2026-05-07 15:39 50.09856 14.26474 1282 ft 151 kts 303°
2026-05-07 15:39 50.10514 14.25123 1979 ft 166 kts 303°
2026-05-07 15:39 50.11245 14.23645 2790 ft 177 kts 305°
2026-05-07 15:40 50.12014 14.22065 3454 ft 196 kts 304°
2026-05-07 15:40 50.12890 14.20234 3691 ft 223 kts 304°
2026-05-07 15:40 50.13859 14.18190 4051 ft 250 kts 304°
2026-05-07 15:40 50.14953 14.15892 4573 ft 268 kts 304°
2026-05-07 15:41 50.16055 14.13599 5732 ft 264 kts 304°
2026-05-07 15:41 50.17151 14.11313 6745 ft 264 kts 304°
2026-05-07 15:41 50.18028 14.08786 7516 ft 267 kts 282°
2026-05-07 15:41 50.18050 14.05908 8335 ft 270 kts 255°
2026-05-07 15:42 50.17221 14.03290 9259 ft 270 kts 231°
2026-05-07 15:42 50.15853 14.01330 10219 ft 271 kts 218°
2026-05-07 15:42 50.14279 13.99536 10659 ft 290 kts 212°
2026-05-07 15:42 50.12325 13.98471 10861 ft 318 kts 187°
2026-05-07 15:43 50.10023 13.98859 11081 ft 346 kts 163°
2026-05-07 15:43 50.07787 14.00324 11625 ft 357 kts 158°
2026-05-07 15:43 50.05520 14.01960 12398 ft 361 kts 157°
2026-05-07 15:43 50.03256 14.03608 13231 ft 363 kts 157°
2026-05-07 15:44 50.01107 14.05155 13954 ft 366 kts 158°
2026-05-07 15:44 49.98778 14.06807 14627 ft 370 kts 158°
2026-05-07 15:44 49.96415 14.08463 15297 ft 374 kts 158°
2026-05-07 15:44 49.94023 14.10129 15968 ft 378 kts 159°
2026-05-07 15:45 49.91608 14.11806 16636 ft 382 kts 159°
2026-05-07 15:45 49.89166 14.13498 17242 ft 387 kts 159°
2026-05-07 15:45 49.87532 14.14632 17673 ft 390 kts 158°
2026-05-07 15:45 49.84565 14.17964 18474 ft 405 kts 134°
2026-05-07 15:46 49.81786 14.23587 19436 ft 410 kts 130°
2026-05-07 15:46 49.80196 14.26937 19941 ft 414 kts 130°
2026-05-07 15:46 49.78474 14.30546 20477 ft 418 kts 130°
2026-05-07 15:47 49.76730 14.34164 21021 ft 421 kts 130°
2026-05-07 15:47 49.74963 14.37793 21551 ft 424 kts 130°
2026-05-07 15:47 49.73177 14.41438 22077 ft 427 kts 130°
2026-05-07 15:47 49.71374 14.45106 22582 ft 430 kts 130°
2026-05-07 15:48 49.69555 14.48802 23082 ft 433 kts 130°
2026-05-07 15:48 49.67725 14.52512 23582 ft 436 kts 130°
2026-05-07 15:48 49.65916 14.56284 23993 ft 439 kts 128°
2026-05-07 15:48 49.64240 14.60245 24429 ft 442 kts 125°
2026-05-07 15:49 49.62626 14.64302 24864 ft 444 kts 125°
2026-05-07 15:49 49.61049 14.68299 25271 ft 446 kts 125°
2026-05-07 15:49 49.59447 14.72309 25661 ft 448 kts 126°
2026-05-07 15:49 49.57791 14.76388 26027 ft 450 kts 126°
2026-05-07 15:50 49.56118 14.80469 26401 ft 451 kts 127°
2026-05-07 15:50 49.54431 14.84562 26783 ft 453 kts 127°
2026-05-07 15:50 49.52753 14.88680 27146 ft 456 kts 125°
2026-05-07 15:50 49.51219 14.92975 27507 ft 460 kts 122°
2026-05-07 15:51 49.49787 14.97386 27856 ft 462 kts 121°
2026-05-07 15:51 49.48386 15.01852 28184 ft 465 kts 121°
2026-05-07 15:51 49.46981 15.06331 28511 ft 466 kts 121°
2026-05-07 15:51 49.45556 15.10814 28869 ft 467 kts 121°
2026-05-07 15:52 49.44220 15.14958 29287 ft 465 kts 122°
2026-05-07 15:52 49.42778 15.19380 29843 ft 461 kts 122°
2026-05-07 15:52 49.41338 15.23760 30277 ft 459 kts 122°
2026-05-07 15:52 49.39892 15.28134 30584 ft 460 kts 122°
2026-05-07 15:53 49.38437 15.32518 30833 ft 461 kts 122°
2026-05-07 15:53 49.36994 15.36862 31134 ft 461 kts 122°
2026-05-07 15:53 49.35534 15.41250 31485 ft 461 kts 122°
2026-05-07 15:53 49.34080 15.45618 31813 ft 460 kts 122°
2026-05-07 15:54 49.32622 15.49992 32109 ft 461 kts 122°
2026-05-07 15:54 49.31163 15.54360 32389 ft 461 kts 122°
2026-05-07 15:54 49.29700 15.58736 32709 ft 461 kts 122°
2026-05-07 15:54 49.28237 15.63103 33045 ft 460 kts 122°
2026-05-07 15:55 49.26774 15.67462 33344 ft 460 kts 122°
2026-05-07 15:55 49.25312 15.71813 33665 ft 460 kts 122°
2026-05-07 15:55 49.23845 15.76169 33970 ft 460 kts 122°
2026-05-07 15:55 49.22381 15.80509 34225 ft 459 kts 122°
2026-05-07 15:56 49.21025 15.84524 34441 ft 460 kts 122°
2026-05-07 15:56 49.19556 15.88864 34659 ft 460 kts 122°
2026-05-07 15:56 49.18202 15.92862 34875 ft 460 kts 122°
2026-05-07 15:56 49.16725 15.97216 35106 ft 460 kts 122°
2026-05-07 15:57 49.15337 16.01295 35297 ft 461 kts 122°
2026-05-07 15:57 49.13851 16.05655 35498 ft 461 kts 122°
2026-05-07 15:57 49.12365 16.10003 35725 ft 462 kts 122°
2026-05-07 15:57 49.10878 16.14346 35921 ft 463 kts 122°
2026-05-07 15:58 49.09385 16.18704 36127 ft 463 kts 122°
2026-05-07 15:58 49.07893 16.23052 36348 ft 463 kts 122°
2026-05-07 15:58 49.06398 16.27402 36536 ft 463 kts 122°
2026-05-07 15:58 49.04902 16.31749 36725 ft 464 kts 122°
2026-05-07 15:59 49.03396 16.36117 36912 ft 464 kts 122°
2026-05-07 15:59 49.00373 16.44860 36930 ft 467 kts 122°
2026-05-07 16:00 48.97366 16.53535 36932 ft 463 kts 123°
2026-05-07 16:00 48.94359 16.62181 36931 ft 461 kts 123°
2026-05-07 16:01 48.91375 16.70726 36940 ft 459 kts 123°
2026-05-07 16:01 48.88385 16.79261 36938 ft 458 kts 123°
2026-05-07 16:02 48.85383 16.87803 36946 ft 459 kts 123°
2026-05-07 16:02 48.82369 16.96351 36944 ft 460 kts 123°
2026-05-07 16:03 48.79455 17.04593 36950 ft 461 kts 123°
2026-05-07 16:03 48.76238 17.12243 36956 ft 455 kts 132°
2026-05-07 16:04 48.72351 17.19824 36949 ft 456 kts 133°
2026-05-07 16:04 48.68647 17.26962 36948 ft 458 kts 133°
2026-05-07 16:05 48.64856 17.34329 36952 ft 458 kts 133°
2026-05-07 16:05 48.61060 17.41745 36950 ft 456 kts 133°
2026-05-07 16:06 48.57261 17.49163 36953 ft 454 kts 133°
2026-05-07 16:06 48.53489 17.56509 36953 ft 453 kts 133°
2026-05-07 16:07 48.49629 17.64000 36955 ft 452 kts 133°
2026-05-07 16:07 48.45763 17.71481 36960 ft 453 kts 133°
2026-05-07 16:08 48.41880 17.78971 36966 ft 454 kts 134°
2026-05-07 16:08 48.40593 17.81451 36963 ft 455 kts 134°